THY1SL LTFM-ULLI

Flight info

Callsign THY1SL
Flight time N/A
Altitude 34000
Route IBLAX P727 BGS DCT GONGO DCT KOMAN DCT FLR DCT SOKRU DCT IPTOL DCT LARMU DCT KARIL DCT KENIN DCT ROBTU/N0449F350 DCT KEFIR DCT ETUBO/N0447F340 M977 BESOT/N0449F350DCT VABER DCT LISGO DCT LATLA/K0822F350 L71 GITIL N743 KOLET
Aircraft A321/M-SDE3FGHIRWY/LB1

Departure

Time 2026-02-17 13:24
Airport İstanbul Airport (LTFM)

Arrival

Time N/A
Airport Pulkovo Airport (ULLI)
Time Latitude Longitude Altitude Speed Heading
2026-02-17 12:42 41.26337 28.73571 334 ft 0 kts 70°
2026-02-17 12:52 41.26337 28.73570 334 ft 0 kts 70°
2026-02-17 13:03 41.26337 28.73569 334 ft 0 kts 70°
2026-02-17 13:09 41.26334 28.73558 330 ft 3 kts 70°
2026-02-17 13:10 41.26327 28.73533 332 ft 3 kts 70°
2026-02-17 13:10 41.26325 28.73525 330 ft 0 kts 72°
2026-02-17 13:10 41.26325 28.73524 330 ft 1 kts 72°
2026-02-17 13:11 41.26327 28.73481 330 ft 3 kts 145°
2026-02-17 13:11 41.26339 28.73474 332 ft 0 kts 164°
2026-02-17 13:13 41.26313 28.73484 332 ft 7 kts 162°
2026-02-17 13:13 41.26252 28.73503 332 ft 9 kts 175°
2026-02-17 13:13 41.26213 28.73488 331 ft 5 kts 268°
2026-02-17 13:14 41.26221 28.73387 332 ft 9 kts 269°
2026-02-17 13:14 41.26220 28.73317 331 ft 7 kts 269°
2026-02-17 13:14 41.26219 28.73259 331 ft 6 kts 269°
2026-02-17 13:15 41.26216 28.73033 332 ft 15 kts 269°
2026-02-17 13:15 41.26215 28.72894 334 ft 15 kts 269°
2026-02-17 13:15 41.26213 28.72757 334 ft 15 kts 269°
2026-02-17 13:15 41.26210 28.72583 334 ft 20 kts 269°
2026-02-17 13:16 41.26208 28.72405 332 ft 17 kts 269°
2026-02-17 13:16 41.26245 28.72304 332 ft 12 kts 342°
2026-02-17 13:16 41.26332 28.72297 331 ft 16 kts 359°
2026-02-17 13:16 41.26479 28.72294 332 ft 23 kts 359°
2026-02-17 13:17 41.26628 28.72289 330 ft 21 kts 359°
2026-02-17 13:17 41.26769 28.72285 333 ft 19 kts 359°
2026-02-17 13:17 41.26898 28.72283 332 ft 18 kts 359°
2026-02-17 13:17 41.27026 28.72280 330 ft 22 kts 359°
2026-02-17 13:18 41.27206 28.72276 331 ft 30 kts 359°
2026-02-17 13:18 41.27444 28.72271 330 ft 38 kts 359°
2026-02-17 13:18 41.27726 28.72264 333 ft 39 kts 359°
2026-02-17 13:19 41.28240 28.72252 332 ft 35 kts 359°
2026-02-17 13:19 41.28420 28.72248 333 ft 18 kts 359°
2026-02-17 13:19 41.28518 28.72292 330 ft 14 kts 72°
2026-02-17 13:19 41.28521 28.72333 331 ft 0 kts 88°
2026-02-17 13:20 41.28522 28.72340 331 ft 6 kts 89°
2026-02-17 13:21 41.28513 28.72447 330 ft 13 kts 120°
2026-02-17 13:21 41.28459 28.72473 332 ft 5 kts 173°
2026-02-17 13:21 41.28450 28.72474 332 ft 0 kts 178°
2026-02-17 13:23 41.28408 28.72475 331 ft 27 kts 179°
2026-02-17 13:23 41.27957 28.72484 332 ft 102 kts 179°
2026-02-17 13:23 41.27033 28.72504 334 ft 162 kts 179°
2026-02-17 13:23 41.25805 28.72527 856 ft 177 kts 180°
2026-02-17 13:24 41.24578 28.72563 1813 ft 180 kts 180°
2026-02-17 13:24 41.23273 28.72628 2209 ft 196 kts 181°
2026-02-17 13:24 41.21831 28.72706 2374 ft 217 kts 180°
2026-02-17 13:24 41.20303 28.72793 2964 ft 221 kts 181°
2026-02-17 13:25 41.18796 28.72490 3564 ft 222 kts 210°
2026-02-17 13:25 41.17737 28.70975 4034 ft 238 kts 244°
2026-02-17 13:25 41.17449 28.68751 4616 ft 251 kts 263°
2026-02-17 13:25 41.17519 28.66435 5250 ft 257 kts 268°
2026-02-17 13:26 41.17672 28.64056 5915 ft 261 kts 269°
2026-02-17 13:26 41.17809 28.61642 6535 ft 263 kts 268°
2026-02-17 13:26 41.17963 28.59213 7121 ft 270 kts 278°
2026-02-17 13:27 41.20560 28.55516 8237 ft 303 kts 341°
2026-02-17 13:27 41.22674 28.55130 8832 ft 310 kts 354°
2026-02-17 13:27 41.24837 28.55036 9447 ft 313 kts 358°
2026-02-17 13:27 41.27028 28.55046 10004 ft 316 kts 358°
2026-02-17 13:28 41.29265 28.55080 10267 ft 331 kts 358°
2026-02-17 13:28 41.31635 28.55245 10395 ft 350 kts
2026-02-17 13:28 41.34108 28.55680 10525 ft 367 kts
2026-02-17 13:28 41.36704 28.56101 10652 ft 383 kts
2026-02-17 13:29 41.39385 28.56508 10951 ft 392 kts
2026-02-17 13:29 41.42111 28.56908 11424 ft 395 kts
2026-02-17 13:29 41.44862 28.57125 11905 ft 397 kts 356°
2026-02-17 13:29 41.47629 28.57044 12421 ft 399 kts 356°
2026-02-17 13:30 41.50413 28.56946 12937 ft 400 kts 353°
2026-02-17 13:30 41.53111 28.56166 13428 ft 396 kts 335°
2026-02-17 13:30 41.55503 28.54417 13878 ft 392 kts 322°
2026-02-17 13:31 41.60024 28.50289 14820 ft 395 kts 322°
2026-02-17 13:31 41.62295 28.48197 15282 ft 398 kts 321°
2026-02-17 13:31 41.64579 28.46092 15729 ft 400 kts 322°
2026-02-17 13:31 41.66880 28.43981 16171 ft 402 kts 322°
2026-02-17 13:32 41.69165 28.41892 16591 ft 404 kts 322°
2026-02-17 13:32 41.71488 28.39769 17016 ft 406 kts 322°
2026-02-17 13:32 41.73827 28.37622 17454 ft 408 kts 322°
2026-02-17 13:32 41.76174 28.35461 17848 ft 411 kts 322°
2026-02-17 13:33 41.78537 28.33280 18197 ft 413 kts 322°
2026-02-17 13:33 41.80903 28.31094 18553 ft 415 kts 322°
2026-02-17 13:33 41.83283 28.28896 18920 ft 416 kts 322°
2026-02-17 13:33 41.85674 28.26686 19289 ft 418 kts 322°
2026-02-17 13:34 41.88077 28.24461 19661 ft 420 kts 322°
2026-02-17 13:34 41.90484 28.22234 20029 ft 422 kts 322°
2026-02-17 13:34 41.92912 28.19991 20393 ft 424 kts 322°
2026-02-17 13:35 41.97790 28.15464 21121 ft 427 kts 322°
2026-02-17 13:35 42.00242 28.13190 21489 ft 429 kts 322°
2026-02-17 13:35 42.02709 28.10903 21844 ft 431 kts 322°
2026-02-17 13:35 42.05146 28.08639 22185 ft 433 kts 322°
2026-02-17 13:36 42.07624 28.06334 22523 ft 434 kts 322°
2026-02-17 13:36 42.10117 28.04011 22858 ft 436 kts 321°
2026-02-17 13:36 42.12613 28.01678 23177 ft 438 kts 322°
2026-02-17 13:36 42.15127 27.99327 23455 ft 440 kts 321°
2026-02-17 13:37 42.17644 27.96971 23749 ft 442 kts 321°
2026-02-17 13:37 42.20171 27.94600 24034 ft 443 kts 321°
2026-02-17 13:37 42.22706 27.92221 24320 ft 444 kts 321°
2026-02-17 13:37 42.25248 27.89836 24610 ft 446 kts 321°
2026-02-17 13:38 42.27804 27.87437 24893 ft 447 kts 321°
2026-02-17 13:38 42.30366 27.85033 25171 ft 449 kts 321°
2026-02-17 13:38 42.32931 27.82623 25455 ft 450 kts 321°
2026-02-17 13:39 42.38056 27.77800 25979 ft 453 kts 321°
2026-02-17 13:39 42.40647 27.75358 26222 ft 455 kts 321°
2026-02-17 13:39 42.43244 27.72909 26460 ft 456 kts 321°
2026-02-17 13:39 42.45855 27.70446 26695 ft 458 kts 321°
2026-02-17 13:40 42.48470 27.67974 26914 ft 459 kts 321°
2026-02-17 13:40 42.51091 27.65492 27140 ft 460 kts 321°
2026-02-17 13:40 42.53716 27.63005 27353 ft 461 kts 320°
2026-02-17 13:40 42.56345 27.60511 27658 ft 460 kts 320°
2026-02-17 13:41 42.58963 27.58019 27946 ft 460 kts 320°
2026-02-17 13:41 42.61584 27.55522 28237 ft 459 kts 320°
2026-02-17 13:41 42.64202 27.53030 28528 ft 459 kts 320°
2026-02-17 13:41 42.66811 27.50543 28827 ft 458 kts 320°
2026-02-17 13:42 42.69414 27.48059 29128 ft 457 kts 320°
2026-02-17 13:42 42.72021 27.45573 29414 ft 457 kts 320°
2026-02-17 13:42 42.74621 27.43089 29669 ft 457 kts 320°
2026-02-17 13:43 42.79809 27.38119 30214 ft 454 kts 319°
2026-02-17 13:43 42.82387 27.35647 30454 ft 453 kts 319°
2026-02-17 13:43 42.84964 27.33175 30694 ft 453 kts 319°
2026-02-17 13:43 42.87537 27.30703 30925 ft 452 kts 319°
2026-02-17 13:44 42.90108 27.28231 31152 ft 452 kts 319°
2026-02-17 13:44 42.92682 27.25752 31303 ft 454 kts 319°
2026-02-17 13:44 42.95259 27.23262 31473 ft 455 kts 318°
2026-02-17 13:44 42.97841 27.20765 31687 ft 455 kts 318°
2026-02-17 13:45 43.00421 27.18270 31902 ft 454 kts 318°
2026-02-17 13:45 43.03004 27.15773 32118 ft 454 kts 319°
2026-02-17 13:45 43.05570 27.13295 32393 ft 451 kts 319°
2026-02-17 13:45 43.08126 27.10822 32637 ft 450 kts 318°
2026-02-17 13:46 43.10680 27.08343 32869 ft 450 kts 318°
2026-02-17 13:46 43.13239 27.05852 33023 ft 451 kts 318°
2026-02-17 13:46 43.15794 27.03358 33168 ft 452 kts 318°
2026-02-17 13:47 43.20920 26.98360 33511 ft 453 kts 318°
2026-02-17 13:47 43.23485 26.95857 33534 ft 454 kts 319°
2026-02-17 13:47 43.28631 26.90840 33533 ft 454 kts 319°
2026-02-17 13:48 43.33778 26.85806 33532 ft 455 kts 319°
2026-02-17 13:48 43.38930 26.80753 33532 ft 455 kts 319°
2026-02-17 13:49 43.44082 26.75681 33541 ft 455 kts 319°
2026-02-17 13:49 43.48367 26.71464 33539 ft 456 kts 319°
2026-02-17 13:50 43.53525 26.66372 33562 ft 456 kts 319°
2026-02-17 13:51 43.61265 26.58712 33558 ft 457 kts 319°
2026-02-17 13:51 43.66432 26.53580 33556 ft 457 kts 319°
2026-02-17 13:52 43.71597 26.48440 33575 ft 458 kts 320°
2026-02-17 13:52 43.76773 26.43287 33551 ft 459 kts 320°
2026-02-17 13:53 43.81957 26.38105 33546 ft 460 kts 320°
2026-02-17 13:53 43.87148 26.32904 33564 ft 460 kts 319°
2026-02-17 13:54 43.92326 26.27705 33569 ft 460 kts 319°
2026-02-17 13:54 43.97504 26.22507 33580 ft 459 kts 319°
2026-02-17 13:55 44.05306 26.14836 33591 ft 460 kts 320°
2026-02-17 13:55 44.10558 26.09755 33590 ft 460 kts 320°
2026-02-17 13:56 44.15801 26.04650 33610 ft 460 kts 320°
2026-02-17 13:56 44.21029 25.99516 33603 ft 459 kts 320°
2026-02-17 13:57 44.26253 25.94370 33601 ft 459 kts 320°
2026-02-17 13:57 44.31478 25.89231 33620 ft 459 kts 320°
2026-02-17 13:58 44.36701 25.84093 33627 ft 460 kts 320°
2026-02-17 13:59 44.44535 25.76337 33626 ft 460 kts 320°
2026-02-17 13:59 44.49756 25.71177 33623 ft 461 kts 323°
2026-02-17 14:00 44.55394 25.66783 33633 ft 464 kts 327°
2026-02-17 14:00 44.61072 25.62457 33631 ft 465 kts 327°
2026-02-17 14:01 44.66755 25.58096 33621 ft 466 kts 327°
2026-02-17 14:01 44.72445 25.53736 33625 ft 466 kts 327°
2026-02-17 14:02 44.78095 25.49401 33615 ft 466 kts 327°
2026-02-17 14:02 44.83776 25.45019 33629 ft 465 kts 327°
2026-02-17 14:03 44.92299 25.38457 33627 ft 465 kts 327°
2026-02-17 14:03 44.97983 25.34052 33613 ft 466 kts 327°
2026-02-17 14:04 45.03379 25.29093 33618 ft 462 kts 321°
2026-02-17 14:04 45.08685 25.23966 33620 ft 462 kts 321°
2026-02-17 14:05 45.13982 25.18838 33614 ft 461 kts 321°
2026-02-17 14:05 45.19280 25.13708 33615 ft 461 kts 321°
2026-02-17 14:06 45.24544 25.08598 33610 ft 461 kts 321°
2026-02-17 14:07 45.32473 25.00864 33616 ft 460 kts 320°
2026-02-17 14:07 45.37749 24.95711 33609 ft 460 kts 320°
2026-02-17 14:08 45.43023 24.90549 33607 ft 460 kts 320°
2026-02-17 14:08 45.48277 24.85393 33637 ft 459 kts 320°
2026-02-17 14:09 45.53524 24.80230 33619 ft 456 kts 320°
2026-02-17 14:09 45.58748 24.75078 33621 ft 456 kts 320°
2026-02-17 14:10 45.63973 24.69914 33624 ft 456 kts 320°
2026-02-17 14:10 45.69190 24.64743 33624 ft 456 kts 320°
2026-02-17 14:11 45.76972 24.57020 33658 ft 456 kts 320°
2026-02-17 14:11 45.82179 24.51836 33647 ft 455 kts 320°
2026-02-17 14:12 45.87374 24.46642 33660 ft 455 kts 320°
2026-02-17 14:12 45.92567 24.41429 33651 ft 455 kts 320°
2026-02-17 14:13 45.97763 24.36209 33651 ft 455 kts 320°
2026-02-17 14:13 46.02951 24.30996 33651 ft 455 kts 320°
2026-02-17 14:14 46.08152 24.25769 33651 ft 455 kts 320°
2026-02-17 14:15 46.15923 24.17904 33662 ft 455 kts 320°
2026-02-17 14:15 46.21095 24.12643 33665 ft 455 kts 320°
2026-02-17 14:16 46.26236 24.07417 33668 ft 455 kts 320°
2026-02-17 14:16 46.31430 24.02189 33669 ft 456 kts 321°
2026-02-17 14:17 46.36778 23.97211 33670 ft 457 kts 323°
2026-02-17 14:17 46.42168 23.92328 33689 ft 457 kts 323°
2026-02-17 14:18 46.47534 23.87374 33675 ft 457 kts 323°
2026-02-17 14:18 46.52878 23.82357 33674 ft 457 kts 323°
2026-02-17 14:19 46.60892 23.74801 33682 ft 458 kts 323°
2026-02-17 14:19 46.66246 23.69755 33666 ft 459 kts 323°
2026-02-17 14:20 46.71607 23.64695 33643 ft 460 kts 323°
2026-02-17 14:20 46.76986 23.59614 33641 ft 461 kts 323°
2026-02-17 14:21 46.82371 23.54511 33649 ft 461 kts 322°
2026-02-17 14:21 46.87748 23.49391 33658 ft 462 kts 322°
2026-02-17 14:22 46.95816 23.41688 33700 ft 462 kts 322°
2026-02-17 14:23 47.03888 23.33965 33699 ft 462 kts 322°
2026-02-17 14:23 47.09270 23.28806 33697 ft 462 kts 322°
2026-02-17 14:24 47.14642 23.23627 33724 ft 462 kts 322°
2026-02-17 14:24 47.20014 23.18440 33708 ft 462 kts 322°
2026-02-17 14:25 47.25335 23.13179 33707 ft 458 kts 317°
2026-02-17 14:25 47.30170 23.07117 33705 ft 456 kts 314°
2026-02-17 14:26 47.34959 23.01061 33703 ft 456 kts 314°
2026-02-17 14:27 47.42212 22.91883 33713 ft 456 kts 315°
2026-02-17 14:27 47.46988 22.85813 33711 ft 455 kts 314°
2026-02-17 14:28 47.51784 22.79685 33703 ft 455 kts 314°
2026-02-17 14:28 47.56569 22.73573 33710 ft 455 kts 314°
2026-02-17 14:29 47.61359 22.67468 33711 ft 454 kts 315°
2026-02-17 14:29 47.66134 22.61349 33709 ft 453 kts 315°
2026-02-17 14:30 47.70856 22.55260 33710 ft 452 kts 315°
2026-02-17 14:31 47.80485 22.43256 33733 ft 455 kts 324°
2026-02-17 14:31 47.85915 22.38383 33728 ft 455 kts 325°
2026-02-17 14:32 47.91339 22.33510 33732 ft 455 kts 325°
2026-02-17 14:32 47.96750 22.28629 33724 ft 455 kts 325°
2026-02-17 14:33 48.02167 22.23724 33724 ft 455 kts 325°
2026-02-17 14:33 48.10292 22.16364 33727 ft 456 kts 324°
2026-02-17 14:34 48.15717 22.11437 33722 ft 456 kts 324°
2026-02-17 14:35 48.23852 22.04021 33712 ft 456 kts 324°
2026-02-17 14:35 48.29268 21.99066 33713 ft 456 kts 324°
2026-02-17 14:36 48.34787 21.94307 33725 ft 461 kts 332°
2026-02-17 14:36 48.40957 21.91709 33723 ft 469 kts 349°
2026-02-17 14:37 48.47433 21.90389 33713 ft 470 kts 349°
2026-02-17 14:37 48.52852 21.89253 33714 ft 470 kts 348°
2026-02-17 14:38 48.59332 21.87875 33708 ft 470 kts 348°
2026-02-17 14:38 48.65815 21.86500 33711 ft 471 kts 348°
2026-02-17 14:39 48.75547 21.84451 33706 ft 471 kts 348°
2026-02-17 14:39 48.82037 21.83078 33703 ft 471 kts 348°
2026-02-17 14:40 48.88519 21.81888 33710 ft 474 kts 355°
2026-02-17 14:40 48.95120 21.82835 33709 ft 479 kts
2026-02-17 14:41 48.98415 21.83622 33710 ft 479 kts
2026-02-17 14:41 49.05011 21.85181 33712 ft 480 kts
2026-02-17 14:42 49.11605 21.86738 33724 ft 480 kts
2026-02-17 14:42 49.18200 21.88299 33725 ft 480 kts
2026-02-17 14:43 49.28104 21.90666 33733 ft 480 kts
2026-02-17 14:43 49.34698 21.92234 33743 ft 480 kts
2026-02-17 14:44 49.41286 21.94070 33750 ft 481 kts
2026-02-17 14:44 49.47831 21.96218 33767 ft 481 kts
2026-02-17 14:45 49.54362 21.98372 33766 ft 479 kts
2026-02-17 14:45 49.60883 22.00430 33770 ft 479 kts
2026-02-17 14:46 49.67372 22.02454 33766 ft 478 kts
2026-02-17 14:47 49.77193 22.05541 33780 ft 478 kts
2026-02-17 14:47 49.83656 22.07594 33778 ft 477 kts
2026-02-17 14:48 49.90167 22.09674 33785 ft 477 kts
2026-02-17 14:48 49.96671 22.11755 33798 ft 477 kts
2026-02-17 14:49 50.03170 22.13825 33796 ft 477 kts
2026-02-17 14:49 50.09670 22.15907 33796 ft 477 kts
2026-02-17 14:50 50.16165 22.18003 33805 ft 477 kts
2026-02-17 14:50 50.22666 22.20098 33798 ft 477 kts
2026-02-17 14:51 50.32401 22.23255 33802 ft 476 kts
2026-02-17 14:51 50.38891 22.25360 33808 ft 476 kts
2026-02-17 14:52 50.45379 22.27471 33829 ft 477 kts
2026-02-17 14:52 50.51874 22.29587 33827 ft 477 kts
2026-02-17 14:53 50.58378 22.31720 33823 ft 477 kts
2026-02-17 14:53 50.64866 22.33862 33831 ft 477 kts
2026-02-17 14:54 50.71312 22.35991 33830 ft 477 kts
2026-02-17 14:55 50.81056 22.39204 33827 ft 477 kts
2026-02-17 14:55 50.87542 22.41350 33837 ft 476 kts
2026-02-17 14:56 50.94022 22.43502 33835 ft 476 kts
2026-02-17 14:56 51.00503 22.45657 33830 ft 476 kts
2026-02-17 14:57 51.07024 22.47845 33841 ft 476 kts
2026-02-17 14:57 51.13506 22.50025 33830 ft 476 kts
2026-02-17 14:58 51.19933 22.52189 33826 ft 476 kts
2026-02-17 14:58 51.26411 22.54377 33823 ft 475 kts
2026-02-17 14:59 51.36112 22.57660 33831 ft 475 kts
2026-02-17 14:59 51.42591 22.59866 33841 ft 476 kts
2026-02-17 15:00 51.49076 22.62081 33832 ft 476 kts
2026-02-17 15:00 51.55527 22.64287 33841 ft 476 kts
2026-02-17 15:01 51.61988 22.66501 33836 ft 476 kts
2026-02-17 15:01 51.68477 22.68729 33824 ft 475 kts
2026-02-17 15:02 51.74945 22.70964 33827 ft 475 kts
2026-02-17 15:03 51.84641 22.74328 33821 ft 475 kts
2026-02-17 15:03 51.91102 22.76573 33819 ft 475 kts
2026-02-17 15:04 51.97566 22.78825 33828 ft 475 kts
2026-02-17 15:04 52.03979 22.81070 33825 ft 474 kts
2026-02-17 15:05 52.10435 22.83333 33838 ft 474 kts
2026-02-17 15:05 52.16883 22.85599 33839 ft 474 kts
2026-02-17 15:06 52.23334 22.87869 33842 ft 474 kts
2026-02-17 15:06 52.29775 22.90148 33843 ft 474 kts
2026-02-17 15:07 52.39445 22.93592 33851 ft 474 kts
2026-02-17 15:07 52.45900 22.95790 33863 ft 472 kts
2026-02-17 15:08 52.52406 22.96041 33874 ft 467 kts 355°
2026-02-17 15:08 52.58911 22.95761 33867 ft 467 kts 355°
2026-02-17 15:09 52.65417 22.95509 33867 ft 467 kts 355°
2026-02-17 15:09 52.71890 22.95257 33869 ft 467 kts 355°
2026-02-17 15:10 52.78391 22.94996 33876 ft 467 kts 356°
2026-02-17 15:11 52.88138 22.94618 33873 ft 467 kts 355°
2026-02-17 15:11 52.94616 22.95317 34135 ft 469 kts
2026-02-17 15:11 52.97851 22.96476 34373 ft 468 kts 10°
2026-02-17 15:12 53.00978 22.97589 34606 ft 466 kts
2026-02-17 15:12 53.04151 22.98707 34812 ft 466 kts
2026-02-17 15:12 53.07335 22.99824 34873 ft 468 kts
2026-02-17 15:13 53.13715 23.02060 34890 ft 469 kts 10°
2026-02-17 15:13 53.20096 23.04320 34877 ft 468 kts 10°
2026-02-17 15:14 53.26461 23.06614 34890 ft 469 kts 10°
2026-02-17 15:14 53.32829 23.08917 34892 ft 468 kts 10°
2026-02-17 15:15 53.42417 23.12369 34900 ft 468 kts 10°
2026-02-17 15:15 53.48784 23.14660 34903 ft 468 kts 10°
2026-02-17 15:16 53.55147 23.16963 34916 ft 468 kts 11°
2026-02-17 15:16 53.61475 23.19268 34921 ft 468 kts 11°
2026-02-17 15:17 53.67835 23.21591 34924 ft 468 kts 11°
2026-02-17 15:17 53.74198 23.23917 34927 ft 468 kts 11°
2026-02-17 15:18 53.80560 23.26245 34928 ft 468 kts 11°
2026-02-17 15:19 53.90099 23.29775 34938 ft 468 kts 11°
2026-02-17 15:19 53.96456 23.32129 34942 ft 468 kts 11°
2026-02-17 15:20 54.02812 23.34486 34938 ft 468 kts 11°
2026-02-17 15:20 54.09170 23.36846 34935 ft 467 kts 11°
2026-02-17 15:21 54.15532 23.39213 34938 ft 467 kts 11°
2026-02-17 15:21 54.21623 23.43022 34948 ft 468 kts 29°
2026-02-17 15:22 54.27138 23.48814 34940 ft 468 kts 31°
2026-02-17 15:22 54.32683 23.54669 34947 ft 468 kts 31°
2026-02-17 15:23 54.41004 23.63446 34951 ft 468 kts 31°
2026-02-17 15:23 54.46541 23.69343 34954 ft 468 kts 31°
2026-02-17 15:24 54.52062 23.75265 34965 ft 468 kts 32°
2026-02-17 15:24 54.56688 23.80232 34964 ft 467 kts 32°
2026-02-17 15:25 54.62163 23.86120 34972 ft 467 kts 32°
2026-02-17 15:25 54.67667 23.92051 34974 ft 466 kts 32°
2026-02-17 15:26 54.73171 23.97994 34968 ft 466 kts 32°
2026-02-17 15:27 54.81396 24.06907 34977 ft 465 kts 32°
2026-02-17 15:27 54.86876 24.12890 34997 ft 465 kts 32°
2026-02-17 15:28 54.92350 24.18895 34994 ft 465 kts 32°
2026-02-17 15:28 54.97814 24.24904 34994 ft 464 kts 32°
2026-02-17 15:29 55.03271 24.30896 34998 ft 464 kts 32°
2026-02-17 15:29 55.08692 24.36879 34993 ft 463 kts 32°
2026-02-17 15:30 55.14023 24.43190 34998 ft 463 kts 37°
2026-02-17 15:30 55.18756 24.49496 35002 ft 463 kts 38°
2026-02-17 15:31 55.26368 24.59944 35007 ft 462 kts 38°
2026-02-17 15:31 55.31449 24.66863 35013 ft 462 kts 38°
2026-02-17 15:32 55.36536 24.73775 35019 ft 462 kts 38°
2026-02-17 15:32 55.41616 24.80710 35030 ft 462 kts 38°
2026-02-17 15:33 55.46683 24.87657 35027 ft 462 kts 38°
2026-02-17 15:33 55.51747 24.94623 35031 ft 461 kts 38°
2026-02-17 15:34 55.56773 25.01563 35045 ft 461 kts 38°
2026-02-17 15:35 55.64344 25.12065 35047 ft 461 kts 38°
2026-02-17 15:35 55.69389 25.19096 35059 ft 461 kts 38°
2026-02-17 15:36 55.74427 25.26114 35065 ft 460 kts 38°
2026-02-17 15:36 55.79450 25.33165 35073 ft 460 kts 38°
2026-02-17 15:37 55.84463 25.40236 35083 ft 460 kts 38°
2026-02-17 15:37 55.89478 25.47312 35089 ft 460 kts 38°
2026-02-17 15:38 55.94485 25.54390 35086 ft 459 kts 38°
2026-02-17 15:38 55.99488 25.61496 35096 ft 459 kts 38°
2026-02-17 15:39 56.06984 25.72188 35102 ft 459 kts 38°
2026-02-17 15:39 56.11967 25.79337 35109 ft 459 kts 38°
2026-02-17 15:40 56.17358 25.87075 35109 ft 459 kts 38°
2026-02-17 15:40 56.22035 25.93822 35116 ft 459 kts 38°
2026-02-17 15:41 56.27010 26.01033 35126 ft 459 kts 38°
2026-02-17 15:41 56.31973 26.08260 35121 ft 459 kts 38°
2026-02-17 15:42 56.36937 26.15499 35135 ft 459 kts 38°
2026-02-17 15:43 56.44373 26.26377 35122 ft 459 kts 38°
2026-02-17 15:43 56.49329 26.33661 35134 ft 460 kts 38°
2026-02-17 15:44 56.54288 26.40983 35142 ft 460 kts 38°
2026-02-17 15:44 56.59239 26.48323 35145 ft 459 kts 38°
2026-02-17 15:45 56.64131 26.55605 35152 ft 459 kts 38°
2026-02-17 15:45 56.69062 26.62962 35126 ft 458 kts 38°
2026-02-17 15:46 56.73988 26.70325 35138 ft 458 kts 38°
2026-02-17 15:46 56.78906 26.77698 35139 ft 458 kts 38°
2026-02-17 15:47 56.86267 26.88799 35140 ft 458 kts 38°
2026-02-17 15:47 56.91181 26.96233 35149 ft 458 kts 38°
2026-02-17 15:48 56.96081 27.03686 35161 ft 458 kts 38°
2026-02-17 15:48 57.00988 27.11172 35163 ft 459 kts 38°
2026-02-17 15:49 57.05891 27.18686 35166 ft 459 kts 38°
2026-02-17 15:49 57.10794 27.26230 35170 ft 459 kts 39°
2026-02-17 15:50 57.15688 27.33780 35169 ft 459 kts 39°
2026-02-17 15:51 57.23029 27.45139 35178 ft 459 kts 39°
2026-02-17 15:51 57.27882 27.52701 35182 ft 459 kts 39°
2026-02-17 15:52 57.32761 27.60326 35179 ft 459 kts 39°
2026-02-17 15:52 57.37634 27.67957 35177 ft 459 kts 38°
2026-02-17 15:53 57.42689 27.75155 35185 ft 458 kts 34°
2026-02-17 15:53 57.47928 27.81863 35181 ft 457 kts 33°
2026-02-17 15:54 57.53165 27.88557 35170 ft 457 kts 34°
2026-02-17 15:54 57.60924 27.98874 35169 ft 457 kts 34°
2026-02-17 15:55 57.66073 28.05831 35166 ft 456 kts 35°
2026-02-17 15:55 57.71218 28.12777 35161 ft 456 kts 34°
2026-02-17 15:56 57.76371 28.19709 35159 ft 456 kts 34°
2026-02-17 15:56 57.81523 28.26650 35159 ft 456 kts 34°
2026-02-17 15:57 57.86666 28.33619 35164 ft 456 kts 35°
2026-02-17 15:57 57.91796 28.40611 35158 ft 455 kts 35°
2026-02-17 15:58 57.96915 28.47624 35151 ft 455 kts 35°
2026-02-17 15:59 58.04598 28.58188 35135 ft 455 kts 35°
2026-02-17 15:59 58.09675 28.65189 35140 ft 455 kts 35°
2026-02-17 16:00 58.14775 28.72254 35135 ft 455 kts 35°
2026-02-17 16:00 58.20185 28.78369 35134 ft 452 kts 20°
2026-02-17 16:01 58.26185 28.81733 35133 ft 450 kts 13°
2026-02-17 16:01 58.32252 28.84704 35032 ft 451 kts 13°
2026-02-17 16:01 58.35314 28.86210 34133 ft 457 kts 13°
2026-02-17 16:02 58.38384 28.87728 33244 ft 457 kts 13°
2026-02-17 16:02 58.41470 28.89264 32424 ft 456 kts 14°
2026-02-17 16:02 58.47610 28.92331 30689 ft 455 kts 14°
2026-02-17 16:03 58.50677 28.93859 29653 ft 457 kts 14°
2026-02-17 16:03 58.53749 28.95394 28750 ft 454 kts 14°
2026-02-17 16:03 58.55760 28.96398 28422 ft 447 kts 14°
2026-02-17 16:03 58.58740 28.97888 27856 ft 440 kts 14°
2026-02-17 16:04 58.61676 28.99355 27276 ft 433 kts 14°
2026-02-17 16:04 58.64568 29.00798 26713 ft 427 kts 14°
2026-02-17 16:04 58.67421 29.02219 26142 ft 421 kts 14°
2026-02-17 16:04 58.70241 29.03624 25602 ft 415 kts 14°
2026-02-17 16:05 58.73011 29.05011 25064 ft 409 kts 15°
2026-02-17 16:05 58.75748 29.06393 24528 ft 404 kts 15°
2026-02-17 16:05 58.78454 29.07763 24003 ft 399 kts 15°
2026-02-17 16:05 58.81124 29.09110 23445 ft 394 kts 15°
2026-02-17 16:06 58.83759 29.10435 22915 ft 388 kts 15°
2026-02-17 16:06 58.86354 29.11744 22420 ft 382 kts 15°
2026-02-17 16:06 58.91452 29.14335 21466 ft 377 kts 15°
2026-02-17 16:07 58.93978 29.15627 20993 ft 375 kts 15°
2026-02-17 16:07 58.96473 29.17053 20549 ft 373 kts 21°
2026-02-17 16:07 58.98823 29.19177 20100 ft 372 kts 30°
2026-02-17 16:07 59.00924 29.21941 19662 ft 369 kts 40°
2026-02-17 16:08 59.02793 29.25340 19239 ft 367 kts 49°
2026-02-17 16:08 59.06035 29.32892 18374 ft 361 kts 51°
2026-02-17 16:08 59.07633 29.36638 17904 ft 359 kts 52°
2026-02-17 16:09 59.09223 29.40369 17477 ft 357 kts 52°
2026-02-17 16:09 59.10800 29.44085 17052 ft 355 kts 52°
2026-02-17 16:09 59.12369 29.47790 16602 ft 353 kts 52°
2026-02-17 16:09 59.13926 29.51475 16154 ft 351 kts 52°
2026-02-17 16:10 59.15471 29.55135 15707 ft 350 kts 52°
2026-02-17 16:10 59.17015 29.58798 15252 ft 348 kts 52°
2026-02-17 16:10 59.20068 29.66057 14316 ft 344 kts 52°
2026-02-17 16:11 59.21581 29.69656 13857 ft 342 kts 52°
2026-02-17 16:11 59.23082 29.73233 13353 ft 339 kts 52°
2026-02-17 16:11 59.24572 29.76789 12886 ft 337 kts 52°
2026-02-17 16:11 59.26047 29.80324 12428 ft 334 kts 52°
2026-02-17 16:12 59.27511 29.83838 11965 ft 332 kts 52°
2026-02-17 16:12 59.28963 29.87332 11504 ft 330 kts 52°
2026-02-17 16:12 59.30403 29.90800 11049 ft 327 kts 52°
2026-02-17 16:12 59.31801 29.94171 10797 ft 317 kts 52°
2026-02-17 16:13 59.33174 29.97414 10663 ft 302 kts 50°
2026-02-17 16:13 59.34568 30.00435 10402 ft 295 kts 47°
2026-02-17 16:13 59.35966 30.03317 10149 ft 289 kts 47°
2026-02-17 16:13 59.37353 30.06147 9975 ft 287 kts 47°
2026-02-17 16:14 59.38732 30.08971 9844 ft 287 kts 47°
2026-02-17 16:14 59.40106 30.11806 9700 ft 286 kts 47°
2026-02-17 16:14 59.42829 30.17475 9415 ft 285 kts 47°
2026-02-17 16:15 59.44185 30.20307 9280 ft 284 kts 47°
2026-02-17 16:15 59.45537 30.23137 9141 ft 284 kts 47°
2026-02-17 16:15 59.46884 30.25964 8935 ft 283 kts 47°
2026-02-17 16:15 59.48224 30.28787 8596 ft 281 kts 47°
2026-02-17 16:16 59.49552 30.31589 8234 ft 279 kts 47°
2026-02-17 16:16 59.50872 30.34373 7872 ft 277 kts 47°
2026-02-17 16:16 59.52180 30.37140 7511 ft 275 kts 47°
2026-02-17 16:16 59.53481 30.39899 7150 ft 274 kts 47°
2026-02-17 16:17 59.54774 30.42635 6795 ft 272 kts 47°
2026-02-17 16:17 59.56062 30.45358 6430 ft 271 kts 46°
2026-02-17 16:17 59.57342 30.48073 6073 ft 270 kts 46°
2026-02-17 16:17 59.58604 30.50751 5722 ft 269 kts 46°
2026-02-17 16:18 59.59893 30.53491 5363 ft 269 kts 46°
2026-02-17 16:18 59.61146 30.56166 5012 ft 268 kts 46°
2026-02-17 16:18 59.63625 30.61466 4514 ft 248 kts 46°
2026-02-17 16:19 59.64837 30.63745 4234 ft 236 kts 32°
2026-02-17 16:19 59.66305 30.65021 3774 ft 229 kts 10°